CAPE
471 1437 1181 853 956 740 557 399 391 490 567 607 610 589 589 548 524 554 532 482 422 408 402 339 284 252 256 208 146 95 130 203 310 263 33 181 7 0 0 0 0 0 1
410 1421 1232 825 815 643 525 418 410 408 434 477 477 468 464 481 509 540 552 595 614 588 571 581 574 553 581 581 447 313 237 251 296 337 362 118 76 0 0 0 0 0 1
951 1573 1332 988 780 658 508 462 390 438 489 551 552 564 625 659 653 618 636 693 865 1008 1018 969 930 888 830 807 745 583 404 334 316 355 103 488 403 62 7 0 0 0 0
1421 1625 1431 1075 742 660 582 404 408 545 624 623 603 598 589 595 580 562 600 666 810 963 1025 1047 1040 1014 948 886 875 785 763 646 491 482 35 203 478 165 165 28 21 18 1
1377 1532 1710 1339 905 793 660 489 499 500 504 520 568 608 644 665 629 584 629 722 818 915 971 977 897 834 793 747 639 452 431 565 620 398 99 91 268 285 427 283 127 56 35
1199 1445 1617 1258 917 846 669 554 513 470 540 599 612 654 775 850 870 828 788 793 993 1162 1225 1149 1003 865 815 759 666 542 434 417 377 401 413 294 265 264 376 683 368 232 143
999 1192 1432 1141 944 805 698 669 596 588 608 584 641 764 824 879 976 1088 1196 1197 1007 1014 1202 1170 918 726 744 803 733 672 656 594 569 614 624 644 595 303 397 932 691 485 307
641 1073 1299 982 848 787 767 782 682 646 727 703 696 758 793 873 928 1110 1270 1365 913 791 1047 931 448 213 181 485 647 517 479 650 885 809 793 802 656 65 370 845 1072 732 593
498 601 828 862 957 848 844 844 711 714 598 617 680 721 800 457 332 604 927 914 155 146 668 266 3 0 0 107 355 511 569 525 551 867 926 874 468 320 431 466 907 1094 877
433 390 543 842 774 1054 925 702 631 563 591 710 821 699 410 18 7 0 0 0 0 1 108 0 0 0 0 0 0 80 38 34 118 281 442 611 439 492 586 1100 1307 1229 1183
527 690 679 721 760 827 617 479 542 646 921 1007 794 383 80 24 0 0 0 0 0 0 0 0 0 0 0 0 0 0 0 0 0 136 195 50 109 294 483 599 802 1207 1498
438 451 532 506 578 509 399 580 861 1027 1311 1453 1054 623 48 4 0 0 0 0 0 0 0 0 0 0 0 0 0 0 0 0 0 0 0 0 0 123 372 552 527 901 1241
493 359 260 267 336 510 756 1232 1211 1306 1432 1515 584 117 0 0 0 0 0 0 0 0 0 0 0 0 0 0 0 0 0 0 0 0 0 0 0 0 22 507 609 522 697
538 487 470 366 391 659 1002 1419 1759 1686 1481 902 35 0 2 1 3 0 0 0 0 0 0 0 0 0 0 0 0 0 0 0 0 0 0 0 0 0 0 48 518 567 707
1107 1007 1144 633 619 605 816 697 643 390 532 78 0 0 0 0 0 0 0 0 0 0 0 0 0 0 0 0 0 0 0 0 0 0 0 0 0 0 0 0 4 376 819
1048 859 785 806 330 1 3 13 1 0 4 5 0 0 0 0 0 0 0 0 0 0 0 0 0 0 0 0 0 0 0 0 0 0 0 0 0 0 0 0 0 10 431
612 464 175 8 0 0 0 0 0 0 0 0 0 0 0 0 0 0 0 0 0 0 0 0 0 0 0 0 0 0 0 0 0 0 0 1 0 0 0 0 0 5 135
357 188 12 0 0 0 0 0 0 0 0 4 0 0 0 0 0 0 0 0 0 0 0 0 0 0 0 0 0 0 0 0 0 0 0 0 0 0 0 0 0 2 380
322 179 84 28 0 0 0 8 1 0 0 0 0 0 0 0 0 0 0 0 0 0 0 0 0 0 0 0 0 0 0 0 0 0 0 0 0 0 0 0 0 305 288
134 85 101 83 17 0 3 0 0 1 0 0 0 0 0 0 0 0 0 0 0 0 0 0 0 0 2 0 0 0 0 0 0 0 0 0 0 0 0 0 0 15 134
83 62 61 84 87 68 50 60 83 103 62 0 0 0 0 0 0 0 0 0 0 0 0 0 0 1 1 24 13 6 5 0 0 0 0 0 0 0 33 45 26 27 38
81 95 80 108 99 94 198 151 141 63 0 0 0 0 0 0 0 0 0 0 0 0 0 4 6 11 8 19 24 26 11 0 0 0 2 0 14 2 63 65 88 131 318
149 138 125 117 192 211 173 34 0 0 0 0 0 0 0 0 0 0 0 0 0 3 9 9 12 25 22 19 35 26 17 5 6 1 0 4 2 42 28 45 39 111 272
154 105 129 244 254 201 46 29 0 0 0 0 0 0 0 0 0 0 0 3 7 12 14 11 11 7 19 13 12 20 26 10 2 7 2 2 8 20 53 52 41 108 283
146 140 169 266 218 88 2 0 0 0 0 0 0 0 0 0 0 0 0 0 3 11 12 10 3 1 27 22 26 8 8 17 9 5 5 14 33 15 38 46 61 89 137
244 216 292 299 314 77 5 0 0 0 0 0 0 0 0 0 0 0 0 1 9 3 4 0 1 3 20 8 0 1 4 4 29 13 28 19 17 19 64 88 113 105 144
CIN
-94 -9 -22 -47 -41 -65 -99 -130 -132 -115 -99 -92 -86 -85 -74 -68 -60 -46 -45 -51 -53 -43 -31 -31 -36 -48 -52 -58 -73 -81 -77 -71 -56 -52 -147 -66 -227 0 0 0 0 0 0
-110 -25 -42 -72 -77 -98 -116 -138 -147 -142 -133 -113 -115 -119 -103 -94 -81 -68 -56 -37 -27 -27 -22 -12 -8 -6 -4 -7 -24 -45 -55 -62 -60 -57 -54 -88 -129 0 0 0 0 0 0
-91 -30 -44 -83 -107 -119 -135 -142 -152 -142 -124 -112 -110 -106 -88 -82 -79 -75 -60 -47 -18 -1 0 0 0 0 0 0 0 -8 -29 -42 -57 -56 -91 -16 -24 -137 -111 0 0 0 0
-74 -53 -63 -107 -132 -129 -132 -155 -158 -137 -117 -111 -104 -106 -107 -102 -104 -104 -88 -72 -43 -15 -3 0 0 0 0 0 0 -2 -1 -4 -28 -39 -33 -49 -26 -79 -95 -171 -198 -195 -30
-79 -61 -49 -74 -112 -114 -128 -148 -148 -142 -146 -135 -124 -117 -108 -100 -100 -114 -108 -80 -66 -51 -42 -31 -33 -26 -22 -19 -21 -38 -42 -29 -17 -41 -72 -64 -50 -48 -67 -83 -110 -137 -145
-92 -70 -57 -86 -115 -116 -123 -139 -142 -146 -143 -137 -126 -119 -107 -95 -95 -96 -91 -89 -56 -42 -36 -37 -36 -43 -40 -35 -40 -49 -48 -46 -57 -10 -22 -40 -60 -76 -82 -45 -68 -79 -96
-115 -93 -62 -102 -108 -127 -134 -132 -144 -145 -148 -150 -146 -124 -107 -97 -83 -69 -55 -57 -64 -49 -34 -34 -43 -49 -42 -37 -35 -36 -40 -49 -32 -4 -8 -14 -20 -98 -82 -31 -48 -58 -73
-173 -126 -97 -138 -148 -141 -147 -142 -141 -139 -130 -136 -137 -135 -136 -112 -88 -64 -52 -44 -66 -68 -41 -42 -72 -99 -91 -44 -38 -36 -34 -28 -9 -14 -17 -5 -25 -163 -85 -27 -7 -36 -51
-206 -193 -172 -153 -144 -154 -152 -143 -149 -149 -163 -151 -132 -128 -105 -136 -143 -84 -51 -53 -133 -115 -47 -92 -49 0 0 -84 -26 -29 -33 -37 -6 -4 -9 -10 -54 -85 -73 -75 -32 -11 -21
-217 -216 -195 -178 -145 -123 -127 -160 -157 -167 -153 -126 -109 -113 -138 -233 -218 -1 0 0 0 -8 -79 0 0 0 0 0 0 -61 -103 -133 -30 -15 -21 -27 -73 -65 -56 -26 -14 -12 -8
-214 -187 -190 -169 -148 -135 -133 -154 -155 -124 -93 -85 -99 -151 -191 -210 0 0 0 0 0 0 0 0 0 0 0 0 0 0 0 0 0 -30 -21 -113 -101 -80 -58 -51 -35 -7 -3
-164 -197 -209 -211 -172 -159 -164 -135 -93 -77 -42 -40 -72 -110 -203 -158 0 0 0 0 0 0 0 0 0 0 0 0 0 0 0 0 0 0 0 0 0 -76 -64 -57 -55 -23 -1
-146 -179 -213 -230 -224 -156 -90 -63 -57 -47 -41 -45 -129 -190 0 0 0 0 0 0 0 0 0 0 0 0 0 0 0 0 0 0 0 0 0 0 0 0 -10 -50 -45 -42 -19
-126 -134 -162 -190 -165 -116 -85 -52 -39 -35 -46 -85 -229 0 -146 -82 -109 -1 0 0 0 0 0 0 0 0 0 0 0 0 0 0 0 0 0 0 0 0 0 -50 -34 -38 -30
-75 -89 -89 -149 -140 -163 -126 -129 -118 -134 -115 -202 0 0 0 0 0 0 0 0 0 0 0 0 0 0 0 0 0 0 0 0 0 0 0 0 0 0 0 0 -4 -26 -8
-90 -100 -140 -151 -204 -23 -92 -87 -34 0 -266 -174 0 0 0 0 0 0 0 0 0 0 0 0 0 0 0 0 0 0 0 0 0 0 0 0 0 0 0 0 0 -17 -11
-141 -169 -220 -18 0 0 0 0 0 0 0 0 0 0 0 0 0 0 0 0 0 0 0 0 0 0 0 -3 0 0 0 0 -3 -3 -4 -31 0 0 0 0 0 -16 -29
-200 -227 -297 0 0 0 0 -18 0 0 -54 -235 -21 0 0 0 0 0 0 0 0 0 0 0 0 0 0 0 0 0 0 0 0 0 0 0 0 0 0 0 0 -2 -14
-227 -225 -209 -239 0 0 -8 -253 -187 0 0 0 0 0 0 0 0 0 0 0 0 0 0 0 0 0 0 0 0 0 0 0 0 0 0 0 0 0 0 0 0 -17 -21
-282 -266 -238 -226 -226 0 -256 0 0 -194 0 0 0 0 0 0 0 0 0 0 0 0 0 0 0 0 -1 0 0 0 0 0 0 0 0 0 0 0 0 0 0 -7 -14
-278 -262 -242 -220 -218 -210 -196 -164 -168 -155 -173 0 0 0 0 0 0 0 0 0 0 0 0 0 0 -2 -2 -1 -2 -2 -3 0 0 0 0 0 0 0 -5 -3 0 -5 -10
-282 -257 -269 -215 -198 -187 -140 -159 -151 -131 0 0 0 0 0 0 0 0 0 0 0 0 -1 -1 -1 -1 -2 -1 -1 -1 -1 -1 -1 -1 -1 0 -2 -4 -5 -5 -9 -13 -19
-248 -236 -243 -206 -163 -154 -171 -229 0 0 0 0 0 0 0 0 0 0 0 0 0 -3 -2 -1 -1 -1 0 -2 -1 -1 -1 -1 -2 -1 0 -7 -47 -11 -6 -7 -15 -30 -27
-205 -247 -232 -193 -179 -192 -263 -234 0 0 0 0 0 0 0 0 0 0 0 -6 -2 -2 -1 -2 -3 -5 -4 -1 -8 -6 -5 -11 -7 -1 -1 -2 -46 -37 -25 -39 -64 -28 -18
-199 -174 -187 -201 -208 -258 -36 0 0 0 0 0 0 0 0 0 0 0 0 0 -3 -2 -2 -3 -3 -8 -6 -6 -5 -9 -17 -2 -11 -5 -2 -1 -2 -46 -37 -43 -41 -30 -31
-156 -154 -186 -196 -194 -240 -156 0 0 0 0 0 0 0 0 0 0 0 0 -2 -10 -15 -15 -12 -12 -7 -4 -4 0 -5 0 -3 -1 0 0 0 -1 -1 -4 -7 -7 -13 -13
Wind_Speed
19 20 20 19 19 19 19 20 21 21 22 22 22 22 23 23 23 23 23 23 23 23 23 22 22 21 21 20 20 20 19 19 19 19 19 18 18 17 17 16 15 15 13
20 20 19 18 18 18 19 20 20 21 21 21 22 22 22 23 23 23 23 23 23 23 23 23 22 22 22 21 21 20 20 20 20 20 19 18 17 17 16 16 15 14 14
21 20 18 18 18 18 18 19 20 20 21 21 21 22 22 22 22 23 22 23 23 23 23 23 23 23 23 22 22 22 21 21 21 21 20 19 18 16 16 15 15 14 13
21 20 19 19 18 18 18 18 19 19 20 21 21 22 22 22 22 23 23 23 23 23 23 24 24 24 24 23 23 23 23 22 22 21 20 19 19 17 16 15 14 13 13
19 18 17 18 18 18 17 18 18 19 20 20 20 21 21 22 22 22 22 21 22 22 22 22 23 23 23 24 24 22 22 22 22 21 20 19 19 19 16 14 14 13 13
17 18 17 17 17 16 17 16 17 18 18 19 20 20 21 21 22 22 23 23 23 22 22 22 22 22 20 21 21 21 21 21 21 21 20 20 20 20 18 13 13 14 14
18 17 17 16 15 16 16 16 16 16 17 18 19 20 21 23 23 24 24 24 25 25 24 24 24 24 24 22 23 20 20 21 20 19 19 20 21 22 21 11 11 13 13
19 17 16 16 16 15 15 15 15 16 17 18 19 20 22 23 24 25 24 24 25 26 25 25 26 26 26 25 24 24 21 20 20 20 20 19 19 21 22 20 13 11 11
20 19 18 16 15 14 14 14 15 15 16 17 19 21 22 23 24 25 25 25 27 27 26 25 25 26 26 26 26 25 24 23 23 22 22 21 20 23 25 25 18 12 11
20 19 18 18 16 15 14 14 13 14 14 17 19 21 21 22 25 26 26 26 26 27 24 24 25 25 25 26 26 26 26 24 25 24 23 22 24 27 27 29 21 10 10
18 18 17 16 14 13 13 12 11 12 13 16 18 20 20 22 25 26 27 29 27 24 23 24 25 25 24 25 27 26 25 25 24 24 24 25 26 28 29 30 28 26 13
16 14 13 12 12 11 11 10 10 11 13 16 18 20 21 24 25 27 28 30 30 27 25 24 23 23 23 27 28 27 26 25 25 25 24 26 27 29 30 31 30 28 20
15 15 12 10 10 9 10 10 11 10 12 16 19 21 23 24 26 27 29 31 30 28 27 26 24 23 25 27 26 26 25 25 27 27 26 27 27 29 30 31 31 30 27
13 12 11 8 8 8 8 9 11 11 14 16 18 22 25 26 27 29 30 31 31 29 29 27 26 25 24 25 24 24 24 25 27 27 28 27 28 30 31 31 30 31 31
10 9 9 8 8 8 8 10 11 12 14 16 18 23 25 26 29 31 32 32 32 32 31 30 29 28 28 26 26 26 25 26 27 28 27 28 29 29 31 32 32 32 31
8 8 10 8 9 11 11 11 12 14 14 16 18 22 25 27 30 32 33 34 34 33 33 32 29 28 26 24 24 22 23 24 24 27 28 28 30 32 31 33 34 34 32
11 11 12 12 11 11 11 11 12 14 14 17 20 23 25 28 31 33 34 34 34 34 34 32 30 28 26 23 23 19 20 21 23 27 29 29 31 31 33 34 35 35 34
12 11 12 11 11 10 10 10 12 13 16 19 21 23 26 28 31 34 35 35 36 36 36 35 32 29 26 24 22 19 21 22 26 29 29 31 33 33 34 34 34 33 31
12 12 11 11 10 10 10 10 11 13 18 20 21 24 27 29 32 33 34 34 36 37 38 36 33 30 27 25 23 19 21 23 26 30 33 35 36 36 35 34 34 29 28
14 13 11 10 10 9 10 10 12 15 19 20 23 25 27 29 32 33 34 35 36 37 37 35 34 30 27 26 24 22 23 24 25 31 33 35 34 33 32 31 27 25 25
14 13 11 9 9 8 9 11 13 18 21 23 24 26 29 32 34 35 35 35 36 36 36 35 33 30 29 26 25 22 22 22 28 32 29 28 27 27 26 22 21 22 24
15 15 13 9 9 7 10 14 17 22 24 25 26 29 30 33 34 34 34 36 36 36 35 35 33 30 27 25 25 25 27 26 28 26 27 27 25 25 20 17 18 19 20
15 17 14 12 10 10 14 18 21 23 24 27 31 32 32 33 34 34 36 37 36 34 34 35 34 31 29 25 23 25 28 30 30 25 26 23 25 23 21 18 18 19 21
16 17 16 12 11 13 16 19 24 26 29 30 31 32 35 34 35 36 36 37 36 34 34 35 33 30 26 25 24 22 22 24 28 27 23 24 23 22 22 20 20 20 20
16 15 15 14 14 15 18 21 23 26 28 29 31 34 35 34 35 36 38 38 36 33 34 34 32 29 23 23 23 24 23 22 22 25 27 25 22 21 22 21 21 19 20
15 15 15 14 15 18 22 22 22 25 27 30 32 33 33 35 36 37 37 34 31 32 32 31 29 26 23 22 21 22 23 23 23 23 26 27 27 24 22 21 20 19 19
Wind_Direction
100 100 92 88 79 66 59 57 54 52 49 46 41 38 35 33 31 28 25 24 21 17 12 9 6 3 358 354 351 349 349 347 344 342 343 351 358 1 360 358 355 357 353
116 106 93 84 81 73 66 63 61 58 53 48 45 44 42 41 37 34 31 26 23 19 15 9 5 2 358 355 349 343 338 336 334 334 335 340 347 348 350 349 347 353 355
100 105 96 93 90 80 72 66 65 65 58 52 48 46 46 41 39 34 31 28 23 17 11 6 2 355 352 348 343 341 339 334 330 326 327 329 331 338 338 341 344 344 344
103 105 101 101 95 85 75 74 68 54 50 47 53 52 54 54 53 44 34 29 24 19 12 5 356 352 348 347 343 337 331 329 330 328 331 327 323 332 330 331 336 339 338
101 98 96 97 97 91 85 83 65 62 56 57 48 46 46 42 39 41 41 38 33 28 25 18 10 5 357 346 342 345 343 337 329 329 328 329 326 324 325 331 331 330 328
95 99 96 97 93 83 84 71 64 52 47 45 41 41 39 38 36 28 22 16 14 17 17 11 8 5 11 2 355 353 344 341 340 332 329 324 323 320 319 324 323 323 322
100 101 98 93 84 83 74 59 47 45 43 36 32 24 15 8 6 6 8 8 4 4 3 2 357 355 353 355 346 357 350 343 338 336 332 326 317 315 314 322 318 317 318
109 100 98 99 97 82 70 65 61 49 37 32 23 15 6 4 359 360 3 3 360 358 358 357 353 351 350 348 342 340 346 344 339 332 327 327 326 318 313 308 308 308 309
115 114 110 105 91 78 76 72 72 62 47 32 19 6 5 3 5 3 4 360 355 353 354 354 354 350 348 345 341 339 339 338 332 330 324 319 317 313 309 305 302 295 294
121 118 119 118 107 101 91 90 78 59 49 32 23 14 12 10 2 359 358 359 359 358 1 359 354 351 349 346 342 339 336 333 327 326 324 321 313 306 303 301 302 283 275
125 126 120 119 110 101 93 80 68 54 41 26 18 12 12 4 358 357 355 351 354 0 358 354 350 348 347 345 342 339 337 333 329 325 320 316 311 306 300 296 300 295 270
115 110 106 99 91 80 59 50 46 36 23 14 6 2 358 355 354 348 346 344 344 347 349 349 349 347 343 336 334 334 330 329 327 324 320 316 311 306 301 295 297 297 291
114 114 108 95 77 59 40 32 19 29 20 4 355 353 351 350 346 345 342 340 341 341 341 340 341 341 338 335 335 334 332 328 323 317 314 313 311 308 304 299 295 293 289
122 107 91 76 45 36 24 14 360 2 356 356 359 350 345 346 346 344 342 340 338 338 336 335 333 333 334 333 332 331 329 326 322 319 312 310 306 305 304 300 297 294 288
122 110 87 74 42 26 16 5 0 1 0 2 4 356 349 350 347 344 342 340 338 335 332 331 330 327 325 326 326 324 322 322 318 316 314 307 305 304 301 298 295 294 292
92 70 60 72 46 33 37 27 17 2 7 3 3 358 353 351 347 345 342 339 336 334 333 332 331 328 326 325 324 324 324 323 319 316 312 308 304 301 301 297 292 290 289
60 51 44 45 52 47 38 30 9 4 4 355 356 352 351 348 346 343 341 338 335 334 333 332 332 331 329 326 323 324 323 323 319 315 312 308 305 302 299 297 293 287 285
52 45 43 48 49 41 30 24 11 9 358 354 354 355 350 349 347 343 340 338 335 334 332 330 331 328 327 325 323 322 321 319 316 313 311 307 303 301 297 295 294 291 286
40 39 41 43 39 33 24 17 12 5 356 351 354 350 347 347 346 344 342 339 337 335 331 332 332 331 326 321 318 317 317 316 315 311 307 304 299 297 295 294 292 289 287
34 33 34 35 31 27 20 9 0 353 348 350 348 346 346 346 344 343 341 339 337 335 334 334 332 331 329 326 321 316 315 315 316 313 310 307 303 298 295 293 291 287 287
21 19 21 23 24 20 13 358 349 343 342 343 345 344 343 343 342 340 339 338 338 336 335 334 333 333 333 333 328 324 321 318 315 314 315 315 311 308 300 296 293 290 289
11 10 11 12 9 10 359 351 344 343 343 344 344 344 343 342 341 340 339 337 336 335 335 335 333 332 331 330 327 326 320 317 318 321 315 313 312 311 306 302 297 295 297
0 2 3 4 2 359 351 347 343 344 344 342 341 341 341 340 340 338 336 335 334 334 332 333 333 330 328 327 327 323 319 314 318 320 318 312 311 307 306 302 300 296 297
355 1 4 7 4 359 355 348 345 342 340 341 341 341 340 340 338 337 335 334 333 331 329 329 330 329 327 324 326 324 321 318 316 314 317 317 308 304 300 299 298 296 297
3 3 10 10 9 5 358 352 349 345 344 343 343 341 340 340 339 337 335 333 332 333 331 332 332 331 329 325 323 323 322 320 317 311 308 309 312 304 298 293 292 294 295
17 16 13 12 8 3 356 356 354 349 348 346 345 344 344 342 341 338 337 338 339 336 335 337 337 334 332 328 326 324 319 317 318 312 304 299 296 298 293 289 289 291 294